Погода в Ореле

Хотите узнать прогноз погоды в Ореле? Тогда Вам сюда: Погода в Ореле

Поиск расширенной информации на нашем сайте:

Полезная информация:

Новости сайта



02.01.2020
Опубликован Долгосрочный прогноз погоды по городам России и ближнего зарубежья на январь 2020 года.
Карты: Прогноз на январь и февраль 2020 года, Сравнение прогнозируемой аномалии приземной температуры воздуха на январь 2020 года по разным моделям.




Погода в Ореле - сегодня

Время (UTC), дата Ветер
(°,м/с) 
Видим.   Явления Облачность Т
(°С)
Тd
(°С)
f(%) Тe
(°С)
Pmin
(гПа)
dP
(гПа)
Po
(мм)
O2
(г/м3)
Тmin Tmax R s Состояние
почвы
15 02.07.20 190 (Ю) 10 км    5/3 600 м верхняя 
[Cu hum|Ci fib]
+27.7 +12.5 39 +33  1011.2  -0.7  742  269           
18 02.07.20 180 (Ю) 10 км    8/4 600 м средняя, верхняя 
[Cu Sc|Ac trans|Ci fib]
+24.3 +14.5 54 +32  1011.8  0.3  742  272    +28.7       
21 02.07.20 180 (Ю) 10 км    1/0 верхняя 
[Ci fib]
+20.5 +15 71 +29  1012.8  0.7  743  275           
00 03.07.20 230 (ЮЗ) 10 км    8/8 600 м кучево-дожд., верхняя 
[Cb calv|Ci fib]
+20.4 +15.4 73 +30  1013  0.2  743  275           
03 03.07.20 200 (Ю) 10 км  {ливн. осадки}  9/8 600 м кучево-дожд., средняя 
[Cb calv|Ac trans]
+18.8 +17.3 91 +33  1013.4  0.3  743  276  +18.4    0.8     
06 03.07.20 170 (Ю) 10 км  {ливн. осадки}  8/3 600 м средняя, верхняя 
[Sc|Ac trans|Ci fib]
+23.4 +17.8 71 +38  1013.7  0.6  744  272  +18.4    0.8    сухая 
09 03.07.20 200 (Ю) 10 км    8/3 600 м верхняя 
[Cu hum|Ci fib]
+28.1 +16.1 48 +39  1013.4  744  268           
12 03.07.20 180 (Ю) 10 км    8/5 600 м верхняя 
[Cu hum|Ci fib]
+29.2 +16.1 45 +40  1012.3  -0.9  743  267           
15 03.07.20 190 (Ю) 10 км    8/3 600 м верхняя 
[Cu hum|Ci fib]
+28.9 +14.3 41 +37  1011.8  -0.5  743  268           
18 03.07.20 180 (Ю) 10 км    6/0 верхняя 
[Ci fib]
+24.6 +16.9 62 +37  1012  -0.2  742  271    +29.8       
21 03.07.20 160 (Ю) 10 км    4/0 верхняя 
[Ci fib]
+21.4 +16.8 75 +34  1012.7  0.5  743  274           
00 04.07.20 160 (Ю) 10 км    3/0 верхняя 
[Ci fib]
+18.6 +15.8 84 +30  1012.6  -0.3  743  277           
03 04.07.20 140 (ЮВ) 10 км    6/0 средняя, верхняя 
[Ac trans|Ci fib]
+19.2 +15.5 79 +31  1012.6  743  276  +17.2         
06 04.07.20 160 (Ю) 10 км    8/0 средняя, верхняя 
[Ac trans|Ci fib]
+26.1 +16.9 57 +39  1011.9  -0.2  742  269  +17.2        сухая 
09 04.07.20 180 (Ю) 10 км    9/3 600 м кучево-дожд., средняя, верхняя 
[Cb calv|Ac trans|Ci fib]
+29.2 +14.5 41 +37  1011.5  0.1  742  267           
12 04.07.20 280 (З) 10 км    9/4 600 м кучево-дожд., средняя, верхняя 
[Cb calv|Ac trans|Ci fib]
+29.7 +16.8 46 +42  1011.2  -0.3  742  266           
15 04.07.20 тихо ()   10 км    9/3 600 м кучево-дожд., средняя, верхняя 
[Cb calv|Ac trans|Ci fib]
+28.3 +20.7 63 +49  1010.7  -0.5  742  266           
18 04.07.20 тихо () {14}  10 км  в посл. час гроза{ливн. осадки}  9/3 600 м кучево-дожд., верхняя 
[Cb calv|Ci fib]
+19 +18.3 96 +34  1011.7  0.3  742  275    +31.1  15     
21 04.07.20 тихо ()   10 км    9/0 средняя, верхняя 
[Ac trans|Ci fib]
+17.6 +17 96 +30  1012.4  0.5  742  277           
00 05.07.20 030 (СВ) 10 км    9/0 средняя, верхняя 
[Ac trans|Ci fib]
+19.2 +17.8 92 +35  1011.7  -0.6  742  275           
03 05.07.20 120 (ЮВ) 10 км    9/3 600 м кучево-дожд., средняя, верхняя 
[Cb calv|Ac trans|Ci fib]
+18.3 +16.4 89 +32  1012  0.3  742  277  +17.4    15     
06 05.07.20 070 (В) 10 км    9/3 600 м кучево-дожд., средняя, верхняя 
[Cb calv|Ac trans|Ci sp]
+23.7 +17.1 67 +37  1010.6  -1  741  271  +17.5        влажная 
09 05.07.20 тихо ()   10 км    10/4 600 м кучево-дожд., средняя 
[Cb calv|As trans]
+25.4 +18.6 66 +41  1011.1  0.6  742  269           
12 05.07.20 350 (С) 10 км  слаб. ливневой дождь  10/8 600 м кучево-дожд., средняя 
[Cb calv|As trans]
+25 +20.1 74 +44  1011  0.1  742  269           
15 05.07.20 250 (З) 10 км  слаб. ливневой дождь  10/8 600 м кучево-дожд., средняя 
[Cb calv|Ac As]
+21.7 +20.3 92 +41  1011.3  742  272         
Время (UTC), дата Ветер
(°,м/с) 
Видим.   Явления Облачность Т
(°С)
Тd
(°С)
f(%) Тe
(°С)
Pmin
(гПа)
dP
(гПа)
Po
(мм)
O2
(г/м3)
Тmin Tmax R s Состояние
почвы

Для получения пояснительной информации подведите курсор к названию столбца.

ПОГОДА в Ореле - архив

Всё, что Вы хотите узнать о погоде в Ореле - удобно и подробно!

Выберите нужную дату (начиная с 1 января 2019* года) и нажмите кнопку "Найти".
Будут отображены архивные сводки погоды по пункту Орел, начиная с указанной даты.


Отображать данные в формате CSV (для использования в таблицах Excel)


Внимание! Наш архив погоды предназначен исключительно для личного некоммерческого использования в познавательных целях. Если Вам необходимы официальные справки о состоянии погоды (для производственных, юридических, коммерческих и т.п. целей), обращайтесь в органы Росгидромета.

*Примечание: данная дата относится к архиву по метеостанциям СССР (Россия, СНГ, Балтия).
Архив по метеостанциям Зарубежной Европы и Азии (кроме Китая) хранится 10 дней, по другим регионам земного шара (Китай, Африка, Америка, Австралия, Океания) - 1 день.

Орел - район местоположения метеостанции


Название, широта, долгота, высота метеостанции:
Орел 52.9°ш. 36°д. 196 м над ур. моря [Российская Федерация]

Дополнительная информация

В oтличие oт бoльшинства пoгoдных сайтoв мы публикуем пoдрoбную метеoинфoрмацию в детальнoм прoфессиoнальнoм фoрмате.

Характеристики температуры и влажнoсти вoздуха измеряются на высoте 2 м в тени вдали oт зданий и деревьев.
Скoрoсть ветра измеряется на высoте 10 м (на урoвне рoста челoвека скoрoсть ветра ниже в 1.5-2 раза). Если метеoстанция нахoдится в гoрoде или в лесу, тo скoрoсть ветра занижена на 2-4 м/с пo сравнению с oткрытым местoм. Скoрoсть ветра над акватoриями крупных рек и oзёр, а также на вершинах хoлмoв на 2-5 м/с выше, чем в oбычных услoвиях.
Атмoсфернoе давление в разных тoчках местнoсти мoжет значительнo oтличаться oт давления на метеoстанции, в зависимoсти oт услoвий рельефа (при пoдъёме на 10 м давление пoнижается примернo на 1 мм рт.ст.).